Location: Biltmore Gardens
(41.6070°N, 83.4666°W)
Time: 14:08:03
(UTC+00:00)

Cosmos 1782 Rocket - Pass Details

Date: 14 July 2020
Orbit: 606 x 633 km, 82.5° (Epoch: 12 August)

Event Time Altitude Azimuth Distance (km) Brightness Sun altitude
Exits shadow 09:21:46 - 204° (SSW) 2,170 5.8 -8.6°
Reaches altitude 10° 09:22:12 10° 205° (SSW) 2,002 5.6 -8.6°
Maximum altitude 09:26:31 50° 281° (W) 803 3.9 -7.9°
Drops below altitude 10° 09:30:50 10° 357° (N) 2,002 6.7 -7.3°
Sets 09:33:07 0° 3° (N) 2,908 7.7 -6.9°
